This is the latest recevied weather packets stored in our database for station/object DO7CRZ-10. If no packets are shown the sender has not sent any weather packets the latest 10 day(s).
| Time | Temp. | Humidity | Pressure | Rain* | Wind** | Luminosity | Snow |
|---|---|---|---|---|---|---|---|
| 1777779059 | 16.11° C | 34% | 1015 hPa | - | - | - | - |
| 1777777313 | 16.11° C | 34% | 1015 hPa | - | - | - | - |
| 1777775567 | 16.11° C | 34% | 1015 hPa | - | - | - | - |
| 1777773821 | 16.11° C | 34% | 1015 hPa | - | - | - | - |
| 1777772075 | 16.11° C | 34% | 1015 hPa | - | - | - | - |
| 1777770330 | 15.56° C | 34% | 1015 hPa | - | - | - | - |
| 1777768584 | 15.56° C | 34% | 1015 hPa | - | - | - | - |
| 1777766838 | 15.56° C | 33% | 1015 hPa | - | - | - | - |
| 1777765092 | 15.56° C | 33% | 1016 hPa | - | - | - | - |
| 1777763346 | 15.56° C | 32% | 1016 hPa | - | - | - | - |
| 1777761601 | 16.67° C | 31% | 1016 hPa | - | - | - | - |
| 1777759855 | 16.67° C | 30% | 1016 hPa | - | - | - | - |
| 1777758109 | 16.67° C | 31% | 1016 hPa | - | - | - | - |
| 1777756363 | 16.67° C | 31% | 1017 hPa | - | - | - | - |
| 1777754617 | 17.22° C | 30% | 1017 hPa | - | - | - | - |
| 1777752871 | 18.33° C | 29% | 1017 hPa | - | - | - | - |
| 1777751125 | 19.44° C | 28% | 1017 hPa | - | - | - | - |
| 1777749380 | 21.11° C | 26% | 1017 hPa | - | - | - | - |
| 1777747634 | 22.22° C | 23% | 1017 hPa | - | - | - | - |
| 1777745888 | 22.78° C | 23% | 1017 hPa | - | - | - | - |
| 1777744142 | 25° C | 25% | 1017 hPa | - | - | - | - |
| 1777742396 | 26.11° C | 25% | 1017 hPa | - | - | - | - |
| 1777740650 | 26.67° C | 24% | 1017 hPa | - | - | - | - |
| 1777738904 | 27.78° C | 25% | 1017 hPa | - | - | - | - |
| 1777737159 | 28.89° C | 25% | 1018 hPa | - | - | - | - |
* Rain since midnight (hover to see other rain measurements)
** Current wind speed in m/s (hover to see current wind gust speed)